AMI457 KRNO-KABQ

Flight info

Callsign AMI457
Flight time N/A
Altitude 41000
Route ZEFFR9 PESKE MVA KU48K KL45M TBC GUP LOWBO3
Aircraft LJ35/M-SGHRWXY/SB1

Departure

Time 2026-05-08 08:35
Airport Reno Tahoe International Airport (KRNO)

Arrival

Time N/A
Airport Albuquerque International Sunport (KABQ)
Time Latitude Longitude Altitude Speed Heading
2026-05-08 08:01 39.50185 -119.76402 4418 ft 0 kts 90°
2026-05-08 08:28 39.50185 -119.76413 4418 ft 2 kts 77°
2026-05-08 08:29 39.50177 -119.76433 4418 ft 3 kts 49°
2026-05-08 08:29 39.50164 -119.76446 4418 ft 0 kts 27°
2026-05-08 08:29 39.50165 -119.76445 4418 ft 1 kts 27°
2026-05-08 08:29 39.50179 -119.76446 4418 ft 4 kts 323°
2026-05-08 08:30 39.50183 -119.76496 4418 ft 8 kts 269°
2026-05-08 08:30 39.50200 -119.76569 4418 ft 11 kts 348°
2026-05-08 08:30 39.50402 -119.76583 4418 ft 19 kts
2026-05-08 08:31 39.50529 -119.76580 4418 ft 16 kts
2026-05-08 08:31 39.50635 -119.76580 4418 ft 15 kts
2026-05-08 08:31 39.50736 -119.76581 4418 ft 13 kts 359°
2026-05-08 08:31 39.50812 -119.76582 4418 ft 9 kts 359°
2026-05-08 08:32 39.50863 -119.76581 4418 ft 7 kts
2026-05-08 08:32 39.50910 -119.76580 4418 ft 7 kts
2026-05-08 08:32 39.50957 -119.76579 4418 ft 8 kts
2026-05-08 08:32 39.51017 -119.76578 4418 ft 10 kts 360°
2026-05-08 08:33 39.51061 -119.76602 4418 ft 2 kts 291°
2026-05-08 08:33 39.51062 -119.76606 4418 ft 1 kts 291°
2026-05-08 08:34 39.51070 -119.76633 4418 ft 5 kts 289°
2026-05-08 08:34 39.51059 -119.76683 4418 ft 8 kts 189°
2026-05-08 08:34 39.50990 -119.76684 4418 ft 13 kts 180°
2026-05-08 08:34 39.50671 -119.76682 4418 ft 82 kts 179°
2026-05-08 08:35 39.49874 -119.76678 4418 ft 143 kts 180°
2026-05-08 08:35 39.48740 -119.76673 4570 ft 180 kts 181°
2026-05-08 08:35 39.47417 -119.76646 5119 ft 196 kts 178°
2026-05-08 08:35 39.46041 -119.76654 5862 ft 202 kts 181°
2026-05-08 08:36 39.44587 -119.76566 6455 ft 215 kts 168°
2026-05-08 08:36 39.43280 -119.75599 7110 ft 226 kts 127°
2026-05-08 08:36 39.43208 -119.73700 7689 ft 238 kts 45°
2026-05-08 08:36 39.44648 -119.74007 7214 ft 269 kts 288°
2026-05-08 08:37 39.44441 -119.76219 8388 ft 211 kts 248°
2026-05-08 08:37 39.44229 -119.77998 9724 ft 207 kts 268°
2026-05-08 08:37 39.44736 -119.79784 10281 ft 218 kts 302°
2026-05-08 08:37 39.45945 -119.80989 10922 ft 226 kts 333°
2026-05-08 08:38 39.47504 -119.81267 11591 ft 228 kts 359°
2026-05-08 08:38 39.49043 -119.80768 12224 ft 229 kts 23°
2026-05-08 08:38 39.50278 -119.79538 12854 ft 222 kts 55°
2026-05-08 08:38 39.50816 -119.77757 13484 ft 207 kts 91°
2026-05-08 08:39 39.50537 -119.76024 13958 ft 196 kts 126°
2026-05-08 08:39 39.49651 -119.74722 14316 ft 192 kts 154°
2026-05-08 08:39 39.48402 -119.74228 14696 ft 188 kts 181°
2026-05-08 08:39 39.47079 -119.74288 15074 ft 192 kts 188°
2026-05-08 08:40 39.45796 -119.74760 15411 ft 195 kts 214°
2026-05-08 08:40 39.44820 -119.75964 15792 ft 199 kts 229°
2026-05-08 08:40 39.43741 -119.77068 16140 ft 203 kts 202°
2026-05-08 08:40 39.42311 -119.77317 16508 ft 209 kts 182°
2026-05-08 08:41 39.40843 -119.77166 16865 ft 213 kts 178°
2026-05-08 08:41 39.39361 -119.76937 17220 ft 216 kts 178°
2026-05-08 08:41 39.37881 -119.76740 17569 ft 217 kts 179°
2026-05-08 08:41 39.36378 -119.76595 17919 ft 217 kts 181°
2026-05-08 08:42 39.34865 -119.76515 18271 ft 217 kts 182°
2026-05-08 08:42 39.33360 -119.76350 18614 ft 221 kts 168°
2026-05-08 08:42 39.31979 -119.75426 18968 ft 227 kts 150°
2026-05-08 08:42 39.30771 -119.74085 19321 ft 230 kts 142°
2026-05-08 08:43 39.29642 -119.72562 19671 ft 243 kts 138°
2026-05-08 08:43 39.28459 -119.70877 20044 ft 263 kts 137°
2026-05-08 08:43 39.27185 -119.69046 20418 ft 285 kts 137°
2026-05-08 08:43 39.25809 -119.67071 20789 ft 306 kts 137°
2026-05-08 08:44 39.24343 -119.64978 21154 ft 321 kts 137°
2026-05-08 08:44 39.22817 -119.62806 21513 ft 332 kts 137°
2026-05-08 08:44 39.21258 -119.60565 21869 ft 338 kts 137°
2026-05-08 08:44 39.19697 -119.58312 22219 ft 343 kts 137°
2026-05-08 08:45 39.18097 -119.56014 22571 ft 347 kts 137°
2026-05-08 08:45 39.16462 -119.53708 22923 ft 349 kts 138°
2026-05-08 08:45 39.14785 -119.51431 23274 ft 352 kts 139°
2026-05-08 08:45 39.13059 -119.49176 23627 ft 354 kts 140°
2026-05-08 08:46 39.11304 -119.46950 23977 ft 355 kts 141°
2026-05-08 08:46 39.09530 -119.44738 24327 ft 356 kts 142°
2026-05-08 08:46 39.07743 -119.42520 24678 ft 357 kts 142°
2026-05-08 08:46 39.05958 -119.40296 25028 ft 358 kts 142°
2026-05-08 08:47 39.04177 -119.38062 25378 ft 358 kts 142°
2026-05-08 08:47 39.02400 -119.35817 25728 ft 357 kts 142°
2026-05-08 08:47 39.00634 -119.33578 26077 ft 356 kts 142°
2026-05-08 08:47 38.98867 -119.31352 26426 ft 356 kts 143°
2026-05-08 08:48 38.97104 -119.29121 26776 ft 354 kts 143°
2026-05-08 08:48 38.95358 -119.26910 27124 ft 352 kts 143°
2026-05-08 08:48 38.93615 -119.24716 27471 ft 350 kts 144°
2026-05-08 08:48 38.91882 -119.22525 27820 ft 348 kts 144°
2026-05-08 08:49 38.90164 -119.20352 28168 ft 346 kts 144°
2026-05-08 08:49 38.88449 -119.18193 28516 ft 344 kts 145°
2026-05-08 08:49 38.86748 -119.16045 28864 ft 342 kts 145°
2026-05-08 08:49 38.85081 -119.13941 29208 ft 338 kts 145°
2026-05-08 08:50 38.83405 -119.11833 29555 ft 336 kts 146°
2026-05-08 08:50 38.81746 -119.09736 29902 ft 333 kts 146°
2026-05-08 08:50 38.80104 -119.07659 30249 ft 331 kts 144°
2026-05-08 08:50 38.78684 -119.05284 30594 ft 340 kts 131°
2026-05-08 08:51 38.77608 -119.02556 30942 ft 346 kts 122°
2026-05-08 08:51 38.76801 -118.99643 31290 ft 346 kts 115°
2026-05-08 08:51 38.76169 -118.96673 31636 ft 345 kts 112°
2026-05-08 08:51 38.75618 -118.93695 31982 ft 341 kts 111°
2026-05-08 08:52 38.75104 -118.90756 32324 ft 336 kts 111°
2026-05-08 08:52 38.74586 -118.87837 32670 ft 336 kts 111°
2026-05-08 08:52 38.74055 -118.84966 33014 ft 335 kts 112°
2026-05-08 08:52 38.73506 -118.82072 33362 ft 333 kts 112°
2026-05-08 08:53 38.72938 -118.79200 33710 ft 333 kts 113°
2026-05-08 08:53 38.72357 -118.76331 34059 ft 333 kts 113°
2026-05-08 08:53 38.71771 -118.73452 34409 ft 334 kts 113°
2026-05-08 08:53 38.71182 -118.70573 34759 ft 335 kts 113°
2026-05-08 08:54 38.70587 -118.67684 35109 ft 336 kts 113°
2026-05-08 08:54 38.70005 -118.64789 35457 ft 336 kts 112°
2026-05-08 08:54 38.69422 -118.61896 35807 ft 335 kts 113°
2026-05-08 08:54 38.68834 -118.59017 36155 ft 334 kts 113°
2026-05-08 08:55 38.68244 -118.56147 36502 ft 332 kts 112°
2026-05-08 08:55 38.67669 -118.53296 36847 ft 330 kts 113°
2026-05-08 08:55 38.67093 -118.50469 37192 ft 326 kts 113°
2026-05-08 08:55 38.66527 -118.47704 37532 ft 322 kts 113°
2026-05-08 08:56 38.65964 -118.44952 37872 ft 318 kts 113°
2026-05-08 08:56 38.65411 -118.42233 38212 ft 312 kts 113°
2026-05-08 08:56 38.64869 -118.39555 38425 ft 311 kts 113°
2026-05-08 08:56 38.64329 -118.36877 38641 ft 308 kts 113°
2026-05-08 08:57 38.63802 -118.34236 38859 ft 305 kts 113°
2026-05-08 08:57 38.63282 -118.31619 39076 ft 301 kts 113°
2026-05-08 08:57 38.62775 -118.29044 39291 ft 296 kts 113°
2026-05-08 08:57 38.62275 -118.26516 39503 ft 290 kts 114°
2026-05-08 08:58 38.61786 -118.24055 39710 ft 282 kts 114°
2026-05-08 08:58 38.61319 -118.21687 39862 ft 275 kts 114°
2026-05-08 08:58 38.60848 -118.19304 39776 ft 280 kts 114°
2026-05-08 08:58 38.60355 -118.16868 39651 ft 285 kts 115°
2026-05-08 08:59 38.59847 -118.14429 39704 ft 283 kts 115°
2026-05-08 08:59 38.59339 -118.12006 39757 ft 281 kts 115°
2026-05-08 08:59 38.58836 -118.09599 39799 ft 279 kts 115°
2026-05-08 08:59 38.58335 -118.07200 39793 ft 280 kts 115°
2026-05-08 09:00 38.57826 -118.04800 39762 ft 281 kts 116°
2026-05-08 09:00 38.57282 -118.02411 39775 ft 279 kts 117°
2026-05-08 09:00 38.56713 -118.00045 39801 ft 277 kts 118°
2026-05-08 09:00 38.56128 -117.97696 39791 ft 278 kts 119°
2026-05-08 09:01 38.55541 -117.95367 39778 ft 279 kts 119°
2026-05-08 09:01 38.54919 -117.92978 39736 ft 281 kts 120°
2026-05-08 09:01 38.54297 -117.90630 39694 ft 284 kts 120°
2026-05-08 09:01 38.53654 -117.88229 39652 ft 288 kts 120°
2026-05-08 09:02 38.52997 -117.85793 39612 ft 293 kts 120°
2026-05-08 09:02 38.52327 -117.83318 39572 ft 298 kts 120°
2026-05-08 09:02 38.50924 -117.78219 39494 ft 311 kts 120°
2026-05-08 09:03 38.49432 -117.72895 39418 ft 326 kts 119°
2026-05-08 09:03 38.47867 -117.67281 39340 ft 344 kts 118°
2026-05-08 09:04 38.46211 -117.61412 39261 ft 364 kts 118°
2026-05-08 09:04 38.44467 -117.55170 39179 ft 384 kts 117°
2026-05-08 09:05 38.42617 -117.48606 39095 ft 403 kts 117°
2026-05-08 09:05 38.40649 -117.41712 39009 ft 423 kts 117°
2026-05-08 09:06 38.38608 -117.34496 38931 ft 442 kts 117°
2026-05-08 09:06 38.36512 -117.26998 38921 ft 456 kts 116°
2026-05-08 09:07 38.34379 -117.19299 38924 ft 463 kts 116°
2026-05-08 09:07 38.32252 -117.11564 38924 ft 461 kts 116°
2026-05-08 09:08 38.30141 -117.03871 38923 ft 461 kts 116°
2026-05-08 09:08 38.28046 -116.96197 38925 ft 463 kts 116°
2026-05-08 09:09 38.25897 -116.88460 38925 ft 463 kts 117°
2026-05-08 09:09 38.24097 -116.82032 38925 ft 464 kts 117°
2026-05-08 09:10 38.21933 -116.74275 38925 ft 466 kts 117°
2026-05-08 09:10 38.19774 -116.66483 38926 ft 467 kts 117°
2026-05-08 09:11 38.17601 -116.58701 38926 ft 467 kts 118°
2026-05-08 09:11 38.15404 -116.50942 38926 ft 465 kts 118°
2026-05-08 09:12 38.13240 -116.43232 38923 ft 460 kts 118°
2026-05-08 09:12 38.11121 -116.35622 38922 ft 459 kts 118°
2026-05-08 09:13 38.08941 -116.27969 38923 ft 462 kts 119°
2026-05-08 09:13 38.06737 -116.20282 38924 ft 465 kts 119°
2026-05-08 09:14 38.04516 -116.12537 38925 ft 468 kts 119°
2026-05-08 09:14 38.02292 -116.04755 38926 ft 470 kts 119°
2026-05-08 09:15 37.99934 -115.97014 38928 ft 469 kts 122°
2026-05-08 09:15 37.97286 -115.89534 38929 ft 466 kts 124°
2026-05-08 09:16 37.94475 -115.82134 38929 ft 466 kts 126°
2026-05-08 09:16 37.91657 -115.74705 38929 ft 467 kts 125°
2026-05-08 09:17 37.88882 -115.67280 38928 ft 465 kts 125°
2026-05-08 09:17 37.86133 -115.59873 38927 ft 464 kts 124°
2026-05-08 09:18 37.83419 -115.52533 38926 ft 463 kts 124°
2026-05-08 09:18 37.80691 -115.45142 38926 ft 462 kts 125°
2026-05-08 09:19 37.77930 -115.37818 38925 ft 461 kts 125°
2026-05-08 09:19 37.75174 -115.30497 38925 ft 461 kts 125°
2026-05-08 09:20 37.72414 -115.23194 38919 ft 460 kts 125°
2026-05-08 09:20 37.69665 -115.15938 38910 ft 460 kts 125°
2026-05-08 09:21 37.66902 -115.08638 38910 ft 460 kts 125°
2026-05-08 09:23 37.57276 -114.83127 38909 ft 461 kts 126°
2026-05-08 09:23 37.54474 -114.75857 38910 ft 460 kts 126°
2026-05-08 09:24 37.51683 -114.68568 38910 ft 461 kts 126°
2026-05-08 09:24 37.48879 -114.61305 38910 ft 461 kts 126°
2026-05-08 09:25 37.46081 -114.54046 38910 ft 461 kts 126°
2026-05-08 09:25 37.43291 -114.46829 38910 ft 461 kts 126°
2026-05-08 09:26 37.40478 -114.39576 38910 ft 461 kts 126°
2026-05-08 09:26 37.37668 -114.32328 38910 ft 461 kts 126°
2026-05-08 09:27 37.34855 -114.25070 38910 ft 461 kts 126°
2026-05-08 09:27 37.32040 -114.17812 38910 ft 462 kts 126°
2026-05-08 09:28 37.29230 -114.10563 38910 ft 462 kts 126°
2026-05-08 09:28 37.26404 -114.03305 38910 ft 462 kts 126°
2026-05-08 09:29 37.23553 -113.96084 38910 ft 462 kts 126°
2026-05-08 09:29 37.20702 -113.88861 38907 ft 462 kts 126°
2026-05-08 09:30 37.17873 -113.81670 38907 ft 463 kts 127°
2026-05-08 09:30 37.14997 -113.74434 38904 ft 463 kts 127°
2026-05-08 09:31 37.12132 -113.67196 38904 ft 463 kts 126°
2026-05-08 09:31 37.09257 -113.59971 38904 ft 464 kts 127°
2026-05-08 09:32 37.06380 -113.52746 38904 ft 464 kts 127°
2026-05-08 09:32 37.03497 -113.45501 38904 ft 464 kts 127°
2026-05-08 09:33 37.00614 -113.38269 38914 ft 465 kts 126°
2026-05-08 09:33 36.97748 -113.31077 38941 ft 464 kts 126°
2026-05-08 09:34 36.94872 -113.23850 38971 ft 464 kts 126°
2026-05-08 09:34 36.91975 -113.16649 38984 ft 463 kts 127°
2026-05-08 09:35 36.89068 -113.09454 38990 ft 464 kts 127°
2026-05-08 09:35 36.86146 -113.02250 38993 ft 465 kts 127°
2026-05-08 09:36 36.83224 -112.95052 39002 ft 465 kts 127°
2026-05-08 09:36 36.80299 -112.87856 39003 ft 465 kts 127°
2026-05-08 09:37 36.77375 -112.80706 39004 ft 465 kts 127°
2026-05-08 09:37 36.74435 -112.73517 39006 ft 466 kts 127°
2026-05-08 09:38 36.71493 -112.66319 39011 ft 466 kts 127°
2026-05-08 09:38 36.68538 -112.59138 39017 ft 466 kts 127°
2026-05-08 09:39 36.65582 -112.51944 39022 ft 466 kts 127°
2026-05-08 09:39 36.62620 -112.44769 39024 ft 466 kts 127°
2026-05-08 09:40 36.59656 -112.37588 39025 ft 466 kts 127°
2026-05-08 09:40 36.56673 -112.30388 39025 ft 467 kts 127°
2026-05-08 09:41 36.53706 -112.23261 39024 ft 467 kts 127°
2026-05-08 09:41 36.50727 -112.16079 39031 ft 467 kts 127°
2026-05-08 09:42 36.47742 -112.08901 39033 ft 467 kts 127°
2026-05-08 09:42 36.44753 -112.01720 39034 ft 468 kts 127°
2026-05-08 09:43 36.41762 -111.94544 39034 ft 468 kts 127°
2026-05-08 09:43 36.38779 -111.87417 39034 ft 468 kts 127°
2026-05-08 09:44 36.35780 -111.80256 39034 ft 468 kts 127°
2026-05-08 09:44 36.32777 -111.73083 39034 ft 468 kts 127°
2026-05-08 09:45 36.29753 -111.65923 39040 ft 468 kts 127°
2026-05-08 09:45 36.26724 -111.58773 39041 ft 468 kts 127°
2026-05-08 09:46 36.23692 -111.51636 39041 ft 468 kts 127°
2026-05-08 09:46 36.20652 -111.44473 39041 ft 468 kts 127°
2026-05-08 09:47 36.17625 -111.37383 39022 ft 469 kts 127°
2026-05-08 09:47 36.14552 -111.30211 39021 ft 469 kts 126°
2026-05-08 09:48 36.11815 -111.22877 39021 ft 476 kts 119°
2026-05-08 09:48 36.09638 -111.15083 39022 ft 481 kts 114°
2026-05-08 09:49 36.07720 -111.07132 39022 ft 482 kts 113°
2026-05-08 09:49 36.05762 -110.99222 39022 ft 481 kts 114°
2026-05-08 09:50 36.03704 -110.91353 39022 ft 480 kts 115°
2026-05-08 09:50 36.01625 -110.83550 39022 ft 481 kts 114°
2026-05-08 09:51 35.99570 -110.75687 39022 ft 481 kts 114°
2026-05-08 09:51 35.97487 -110.67848 39022 ft 481 kts 114°
2026-05-08 09:52 35.95396 -110.60001 39022 ft 481 kts 114°
2026-05-08 09:52 35.93298 -110.52158 39048 ft 480 kts 114°
2026-05-08 09:53 35.91203 -110.44326 39057 ft 480 kts 114°
2026-05-08 09:53 35.89120 -110.36541 39058 ft 481 kts 114°
2026-05-08 09:54 35.87024 -110.28714 39058 ft 481 kts 114°
2026-05-08 09:54 35.84931 -110.20886 39065 ft 481 kts 114°
2026-05-08 09:55 35.82835 -110.13038 39070 ft 481 kts 114°
2026-05-08 09:55 35.80746 -110.05202 39070 ft 481 kts 114°
2026-05-08 09:56 35.78667 -109.97423 39077 ft 481 kts 114°
2026-05-08 09:56 35.76883 -109.90879 39079 ft 478 kts 114°
2026-05-08 09:56 35.75862 -109.87090 38960 ft 469 kts 114°
2026-05-08 09:57 35.73787 -109.79512 38283 ft 465 kts 114°
2026-05-08 09:57 35.72766 -109.75747 37958 ft 463 kts 114°
2026-05-08 09:57 35.71740 -109.71994 37631 ft 461 kts 114°
2026-05-08 09:58 35.70713 -109.68262 37306 ft 459 kts 115°
2026-05-08 09:58 35.69695 -109.64540 36981 ft 458 kts 114°
2026-05-08 09:58 35.68682 -109.60826 36656 ft 457 kts 114°
2026-05-08 09:58 35.67666 -109.57124 36331 ft 457 kts 115°
2026-05-08 09:59 35.66650 -109.53428 36006 ft 456 kts 115°
2026-05-08 09:59 35.65644 -109.49771 35684 ft 455 kts 114°
2026-05-08 09:59 35.64624 -109.46080 35358 ft 455 kts 114°
2026-05-08 09:59 35.63602 -109.42390 35033 ft 455 kts 115°
2026-05-08 10:00 35.62585 -109.38709 34708 ft 455 kts 114°
2026-05-08 10:00 35.61566 -109.35029 34383 ft 454 kts 114°
2026-05-08 10:00 35.60545 -109.31352 34058 ft 454 kts 114°
2026-05-08 10:00 35.59523 -109.27676 33734 ft 454 kts 114°
2026-05-08 10:01 35.58500 -109.24001 33409 ft 454 kts 114°
2026-05-08 10:01 35.57479 -109.20340 33086 ft 454 kts 114°
2026-05-08 10:01 35.56457 -109.16673 32761 ft 453 kts 114°
2026-05-08 10:01 35.55433 -109.13006 32436 ft 453 kts 114°
2026-05-08 10:02 35.54409 -109.09355 32112 ft 452 kts 115°
2026-05-08 10:02 35.53361 -109.05697 31786 ft 456 kts 115°
2026-05-08 10:02 35.52320 -109.02055 31469 ft 460 kts 115°
2026-05-08 10:02 35.51269 -108.98334 31145 ft 461 kts 115°
2026-05-08 10:03 35.50230 -108.94625 30829 ft 460 kts 114°
2026-05-08 10:03 35.49208 -108.90908 30712 ft 456 kts 113°
2026-05-08 10:03 35.47886 -108.83333 30479 ft 455 kts 100°
2026-05-08 10:04 35.47727 -108.79445 30292 ft 457 kts 94°
2026-05-08 10:04 35.47811 -108.75556 30181 ft 455 kts 90°
2026-05-08 10:04 35.48247 -108.67886 30127 ft 445 kts 89°
2026-05-08 10:05 35.48604 -108.60372 30124 ft 436 kts 91°
2026-05-08 10:05 35.48795 -108.53001 30123 ft 429 kts 92°
2026-05-08 10:06 35.48911 -108.45778 30123 ft 424 kts 92°
2026-05-08 10:06 35.49060 -108.38569 30123 ft 420 kts 93°
2026-05-08 10:07 35.48955 -108.31442 30122 ft 415 kts 97°
2026-05-08 10:07 35.48558 -108.24416 30124 ft 411 kts 100°
2026-05-08 10:08 35.48072 -108.17425 30135 ft 409 kts 100°
2026-05-08 10:08 35.47604 -108.10509 30136 ft 408 kts 100°
2026-05-08 10:09 35.47140 -108.03577 30135 ft 407 kts 100°
2026-05-08 10:09 35.46681 -107.96658 30135 ft 406 kts 99°
2026-05-08 10:10 35.46211 -107.89759 30135 ft 405 kts 99°
2026-05-08 10:10 35.45739 -107.82872 30135 ft 404 kts 99°
2026-05-08 10:11 35.45275 -107.76043 30134 ft 404 kts 99°
2026-05-08 10:11 35.44842 -107.69080 29582 ft 419 kts 99°
2026-05-08 10:12 35.44612 -107.65478 29131 ft 426 kts 99°
2026-05-08 10:12 35.44381 -107.61899 28680 ft 416 kts 98°
2026-05-08 10:12 35.44163 -107.58399 28228 ft 407 kts 98°
2026-05-08 10:12 35.43940 -107.54969 27776 ft 400 kts 99°
2026-05-08 10:13 35.43723 -107.51594 27324 ft 395 kts 98°
2026-05-08 10:13 35.43510 -107.48269 26874 ft 390 kts 99°
2026-05-08 10:13 35.43292 -107.44972 26422 ft 386 kts 98°
2026-05-08 10:13 35.43080 -107.41701 25971 ft 382 kts 98°
2026-05-08 10:14 35.42801 -107.38483 25520 ft 377 kts 104°
2026-05-08 10:14 35.42191 -107.35387 25069 ft 370 kts 113°
2026-05-08 10:14 35.41231 -107.32487 24618 ft 363 kts 121°
2026-05-08 10:14 35.40046 -107.29834 24176 ft 358 kts 127°
2026-05-08 10:15 35.38705 -107.27276 23726 ft 355 kts 130°
2026-05-08 10:15 35.37310 -107.24781 23275 ft 353 kts 130°
2026-05-08 10:15 35.35922 -107.22304 22825 ft 352 kts 130°
2026-05-08 10:15 35.34553 -107.19817 22375 ft 352 kts 129°
2026-05-08 10:16 35.33203 -107.17306 21924 ft 352 kts 128°
2026-05-08 10:16 35.31883 -107.14787 21475 ft 352 kts 128°
2026-05-08 10:16 35.30562 -107.12270 21024 ft 350 kts 129°
2026-05-08 10:16 35.29137 -107.09874 20575 ft 347 kts 134°
2026-05-08 10:17 35.27573 -107.07631 20125 ft 345 kts 138°
2026-05-08 10:17 35.25910 -107.05525 19675 ft 343 kts 141°
2026-05-08 10:17 35.24183 -107.03521 19227 ft 341 kts 143°
2026-05-08 10:17 35.22417 -107.01571 18775 ft 341 kts 143°
2026-05-08 10:18 35.20638 -106.99649 18319 ft 341 kts 144°
2026-05-08 10:18 35.18952 -106.97588 17871 ft 345 kts 135°
2026-05-08 10:18 35.17592 -106.95191 17427 ft 350 kts 124°
2026-05-08 10:18 35.16525 -106.92535 16984 ft 343 kts 117°
2026-05-08 10:19 35.15729 -106.89856 16530 ft 328 kts 112°
2026-05-08 10:19 35.15095 -106.87230 16086 ft 316 kts 109°
2026-05-08 10:19 35.14524 -106.84672 15644 ft 307 kts 109°
2026-05-08 10:20 35.13389 -106.79754 14740 ft 294 kts 110°
2026-05-08 10:20 35.12815 -106.77394 14288 ft 286 kts 111°
2026-05-08 10:20 35.12242 -106.75099 13835 ft 279 kts 111°
2026-05-08 10:20 35.11667 -106.72859 13387 ft 273 kts 111°
2026-05-08 10:21 35.11099 -106.70664 12933 ft 269 kts 112°
2026-05-08 10:21 35.10543 -106.68524 12480 ft 266 kts 112°
2026-05-08 10:21 35.09986 -106.66384 12031 ft 262 kts 112°
2026-05-08 10:21 35.09442 -106.64286 11596 ft 256 kts 112°
2026-05-08 10:22 35.08912 -106.62232 11145 ft 252 kts 111°
2026-05-08 10:22 35.08386 -106.60202 10691 ft 249 kts 112°
2026-05-08 10:22 35.07868 -106.58193 10235 ft 246 kts 111°
2026-05-08 10:22 35.07453 -106.56171 9791 ft 246 kts 103°
2026-05-08 10:23 35.07261 -106.54099 9359 ft 245 kts 98°
2026-05-08 10:23 35.07274 -106.52022 8896 ft 248 kts 82°
2026-05-08 10:23 35.07767 -106.50007 8467 ft 247 kts 71°
2026-05-08 10:23 35.08383 -106.48051 8006 ft 246 kts 77°
2026-05-08 10:24 35.08411 -106.46032 7586 ft 233 kts 107°
2026-05-08 10:24 35.08276 -106.45967 7262 ft 30 kts 304°
2026-05-08 10:24 35.08227 -106.45989 7211 ft 20 kts 83°
2026-05-08 10:24 30.49934 -86.51129 93 ft 0 kts 192°